CAPE
0 0 0 0 0 0 0 0 0 0 0 0 0 0 0 0 0 0 0 0 0 0 0 0 0 0 0 0 0 0 109 289 53 78 764 848 902 833 844 967 1008 1232 1248 1116 1026 1040 1638 1767 1667 1594 1730 1995 2236 2336 2363 2333 2246 2258 2237 2284 2341 2079 1871
0 0 0 0 0 0 0 0 0 0 0 0 0 0 0 0 0 0 0 0 0 0 0 0 0 0 0 0 0 0 0 46 36 311 351 819 915 901 907 1028 1027 1113 1174 1256 1239 1213 1412 1585 1632 1639 1602 1877 2223 2496 2455 2432 2353 2354 2294 2223 2252 2198 2015
0 0 0 0 0 0 0 0 0 0 0 0 0 0 0 0 0 0 0 0 0 0 0 0 0 0 0 0 0 0 0 4 31 510 582 685 732 758 919 1164 1166 1161 1154 1244 1322 1315 1325 1527 1591 1554 1614 2005 2229 2575 2708 2566 2488 2501 2444 2318 2192 2142 2106
0 0 0 0 0 0 0 0 0 0 0 0 0 0 0 0 0 0 0 0 0 0 0 0 0 0 0 0 0 0 2 16 45 635 674 658 614 727 770 926 1032 1108 1118 1178 1271 1334 1364 1390 1508 1564 1704 2143 2306 2539 2837 2845 2740 2648 2621 2502 2361 2153 2092
0 0 0 0 0 0 0 0 0 0 0 0 0 0 0 0 0 0 0 0 0 0 0 0 0 0 0 0 0 0 0 90 72 339 535 599 385 543 754 858 940 970 958 964 1010 1078 1238 1365 1426 1636 1924 2288 2412 2514 2744 2940 2955 2850 2761 2628 2470 2372 2248
0 0 0 0 0 0 0 0 0 0 0 0 0 0 0 0 0 0 0 0 0 0 0 0 0 0 0 0 0 0 0 29 199 325 298 562 503 629 752 840 896 969 1008 1046 983 956 962 1196 1681 1848 1993 2422 2610 2637 2740 2911 3002 2970 2861 2718 2558 2521 2484
1 0 0 0 0 0 0 0 0 0 0 0 0 0 0 0 0 0 0 0 0 4 0 0 0 0 0 0 0 0 0 0 60 391 480 220 618 625 697 750 848 930 1096 1183 1084 1088 1278 1506 1994 2272 2365 2548 2683 2808 2878 3018 3054 3014 2912 2790 2623 2559 2591
0 0 0 0 0 0 0 0 0 0 0 0 0 0 0 0 0 0 0 0 0 0 0 0 0 0 0 0 0 0 0 0 32 426 474 113 81 597 578 753 784 890 1150 1252 1180 1186 1390 1548 1719 2165 2458 2607 2686 2822 2998 3151 3240 3226 3093 2933 2752 2632 2670
0 0 4 0 0 0 0 0 0 0 0 0 0 0 0 0 0 0 0 0 0 0 0 0 0 0 0 0 0 0 0 0 252 329 318 181 135 672 679 918 902 957 1178 1276 1288 1333 1418 1621 1717 1919 2074 2308 2542 2628 2763 3328 3425 3488 3396 3214 2957 2791 2796
9 0 0 0 0 0 0 0 0 0 0 0 0 0 0 0 0 0 0 0 0 0 28 0 0 0 0 0 0 0 35 126 394 457 411 248 185 725 870 930 932 975 1258 1432 1552 1545 1533 1732 1920 2057 2157 2210 2257 2283 2266 3097 3705 3694 3628 3492 3213 2920 2892
5 72 231 46 0 0 0 0 0 0 0 0 0 0 0 0 0 0 0 0 0 0 0 0 0 0 0 0 528 626 842 1004 671 476 465 442 208 60 834 966 929 887 1021 1446 1780 1847 1744 1767 1828 2027 2284 2363 2408 2515 2620 2892 3618 3954 3870 3732 3570 3276 3020
4 101 52 97 1 0 0 0 0 0 0 0 0 0 0 0 0 0 0 123 0 0 0 0 0 0 0 193 610 820 890 1034 784 395 636 667 254 259 599 819 798 782 827 1164 1460 1710 1851 1847 1805 1676 2121 2495 2730 2793 2796 2823 3340 3934 4034 3910 3763 3554 3278
7 66 36 23 13 0 0 0 0 0 0 0 0 0 0 0 0 0 0 307 0 0 0 0 0 0 0 443 395 762 894 944 880 559 649 495 618 1066 766 890 897 866 893 1279 1516 1567 1714 1772 1750 1769 2185 2578 2949 3046 3006 2927 3118 3624 4048 4114 3974 3741 3498
2 90 22 24 23 6 0 0 0 0 0 0 0 0 0 0 0 95 539 0 84 0 0 0 0 0 0 31 492 655 654 786 893 800 664 1228 1551 1348 1288 1378 1259 1184 1242 1387 1274 1558 1681 1532 1733 2174 2706 3053 3125 3151 3142 3064 3002 3340 3825 4104 4103 3964 3756
4 67 14 6 17 10 34 1 0 0 0 0 0 0 0 0 0 0 420 98 183 12 0 0 0 0 0 0 0 220 507 730 769 817 1112 1705 1849 1659 1488 1594 1634 1731 2084 2131 1972 2196 2441 2452 2611 3128 3403 3392 3395 3354 3268 3187 3151 3163 3629 3962 4051 4008 3895
7 77 30 7 22 6 6 2 0 0 0 0 0 0 0 0 0 0 430 110 0 0 1 75 0 0 0 0 0 0 376 377 512 654 650 1000 1607 1686 1526 1428 2044 3620 4083 3452 2918 2744 3040 3192 3220 3314 3547 3618 3560 3495 3453 3426 3343 3240 3359 3691 3921 3950 3879
6 36 6 24 0 0 2 0 0 0 0 0 0 0 0 0 6 0 129 1 4 0 0 0 0 0 0 0 0 0 4 0 196 477 556 524 1360 1702 1695 2112 2383 3970 4408 4463 4162 3815 3520 3568 3456 3296 3336 3579 3630 3578 3544 3584 3510 3385 3260 3434 3710 3820 3765
12 24 0 2 0 0 1 9 0 0 0 1 0 0 0 0 3 0 1 101 262 0 0 0 0 0 0 0 0 0 0 0 12 214 34 532 1330 1775 1461 1452 1599 2238 3344 4075 4254 4352 4117 3888 3747 3527 3368 3281 3576 3586 3528 3542 3537 3519 3390 3274 3442 3652 3671
15 18 3 20 0 0 6 0 0 0 9 0 4 1 0 0 1 3 8 37 344 358 70 10 0 0 0 0 0 9 93 0 255 360 197 13 187 134 1560 2452 2934 1939 1894 2548 3226 3465 3357 3600 3512 3403 3276 3248 3185 3431 3517 3515 3443 3413 3425 3359 3364 3458 3500
2 17 1 3 0 0 0 0 0 27 9 18 43 38 543 818 963 606 4 72 34 0 0 1 0 0 0 561 1666 2319 2473 2281 2016 2124 2830 3389 3524 3892 3995 3821 3382 2828 2692 2833 3008 2781 2594 2219 2522 2545 2707 2848 2881 2898 3099 3248 3316 3144 3067 3219 3279 3274 3379
8 3 0 0 153 0 16 6 19 8 12 23 13 432 628 729 975 1101 390 38 12 8 0 0 0 0 632 2151 2418 2291 2450 2537 2542 2960 3498 3780 3625 3368 3354 3573 3911 3903 3880 3795 3772 3353 2977 3018 1944 2108 2084 1936 2200 2540 2629 2641 2672 2862 2899 2917 2936 3466 3386
6 0 0 3 6 3 11 9 16 12 18 7 71 712 700 1071 1193 1247 1352 50 34 11 4 0 0 161 1681 2031 2110 2185 2165 2252 2471 2647 2756 3249 3546 2959 2762 2614 2651 3142 3290 3409 3877 3207 2670 2233 2190 2320 2651 2397 2299 1992 2326 2479 2475 2600 2651 2918 2975 3337 3675
5 6 15 4 3 2 15 8 16 25 8 32 6 535 648 946 1106 1433 1326 1437 1093 338 7 0 0 1269 1573 1742 1866 1853 1975 1879 2229 2370 2466 2418 2545 2820 2885 2860 2498 3180 3983 4108 4205 4374 4511 4172 4259 4238 3873 2438 2363 2228 2127 2132 2306 2300 2235 2306 2987 3125 3973
5 3 0 12 2 1 16 16 27 24 14 8 2 301 555 797 1173 1229 1208 1108 1124 1190 1037 1038 1165 1251 1286 1406 1426 1508 1716 1950 2355 2551 2400 2316 2211 2110 2885 2853 2372 2823 3910 3782 3142 3980 4491 4876 4557 4489 4724 4472 4203 4096 4139 2145 2209 2206 2140 2130 2533 3087 3996
24 7 1 0 5 0 0 0 14 6 171 9 375 300 612 820 1082 1154 1081 1012 925 1044 1193 1175 1254 1304 1334 1339 1288 1418 1534 1793 1986 2261 2210 2052 1852 2572 2975 2866 2688 2728 3576 4042 4219 4082 4128 4053 4296 4172 4313 5287 5435 4694 4820 4050 3271 2221 2029 2054 2600 3272 3839
32 27 18 19 4 0 0 0 0 4 298 284 535 443 556 678 786 1036 1028 902 797 836 952 1037 1160 1270 1319 1262 1269 1270 1522 1666 1715 1881 1929 1929 1979 2471 2914 2979 2481 2324 3462 3928 4002 4129 3921 3838 3892 4114 4163 4894 5652 5638 4940 4534 4955 4652 3560 2394 2828 3308 3537
24 4 14 4 16 11 0 0 0 25 320 403 317 432 523 569 609 738 964 823 672 663 691 759 992 1229 1235 1119 977 1005 1252 1405 1473 1632 1837 2057 2126 2185 2345 2564 2445 2515 3284 3645 3772 3410 3131 3588 3622 3789 4597 5152 5279 5520 5406 5492 5393 4712 6297 3369 3069 3390 3490
24 10 5 17 15 0 1 0 0 60 225 193 281 356 566 531 534 579 696 755 631 580 540 513 557 655 685 782 752 973 1132 1312 1424 1727 1922 1937 1943 1967 2143 2108 2088 2312 2914 2819 2996 2793 3215 3793 3913 4049 4736 4878 5660 5734 5075 5629 5395 5144 4520 5806 3717 3692 3505
26 26 8 9 4 1 4 0 2 0 118 107 323 385 567 499 443 441 387 443 611 522 414 461 340 436 526 572 590 817 952 944 1104 1444 1596 1776 1991 2143 2236 2339 2394 2466 2376 2756 2642 2955 3429 3442 3605 4072 4255 4547 4915 4752 4696 4783 5333 5334 5302 5776 4921 4359 3883
10 4 6 1 0 2 14 9 1 0 2 149 237 338 433 368 439 350 284 226 277 290 338 270 246 342 538 624 590 524 786 932 941 934 1117 1521 1735 2020 2168 2241 2205 2510 2650 2585 2838 3053 3043 3157 3231 3918 4159 4321 4552 4493 4552 4680 4867 5468 5149 5904 5765 5086 4494
2 14 0 2 0 2 2 5 0 1 0 5 219 303 311 324 324 257 206 163 0 33 201 294 294 352 540 658 654 595 747 788 940 967 951 1022 1368 1642 1979 2274 2228 2356 2524 2890 2948 2965 2786 2578 2788 3160 3722 4047 4204 4304 4291 4624 5041 5245 5200 6346 5966 5653 5357
2 3 4 1 0 6 1 0 0 0 3 25 62 90 230 350 316 239 177 0 0 0 41 138 288 469 601 655 638 686 621 877 997 1022 920 938 1028 1215 1624 2065 2076 2220 2524 2729 2871 2751 2646 2666 2751 2742 2950 3735 3832 3986 4066 4351 4900 5256 5462 5422 5941 5624 5499
5 4 0 0 1 0 0 0 0 0 1 4 25 60 151 168 312 244 172 101 23 0 0 11 180 426 574 604 668 718 757 996 1037 922 817 883 990 1199 1760 1811 2074 2486 2447 2671 2678 2565 2533 2646 2528 2407 2311 2426 2964 3407 3750 4158 4676 4905 5316 5344 5891 5510 5588
2 7 4 0 4 8 0 0 0 0 0 0 0 22 41 86 145 177 196 151 92 0 0 0 47 273 393 654 719 660 754 1105 782 904 905 907 991 1312 1758 1807 2268 2378 2420 2657 2526 2499 2474 2611 2466 2387 2291 2126 2268 2743 3414 4048 4643 4662 4826 5397 5503 4874 4914
0 2 2 1 0 0 0 0 0 0 0 0 0 0 0 14 28 49 90 89 7 0 0 0 0 115 341 505 605 684 792 870 946 1103 1249 1344 1439 1456 1610 1637 1935 2084 2130 2418 2388 2427 2415 2463 2286 2229 1939 1860 1964 2806 3121 3835 4581 4560 4710 4862 4994 4775 4616
0 0 0 0 0 0 0 0 0 0 0 0 0 0 0 0 0 2 25 17 0 0 0 0 0 50 267 395 560 760 972 1046 1024 1087 1271 1146 1363 1688 1813 1909 1642 1654 1909 2189 2253 2390 2355 2367 2264 2156 1832 1642 1905 2595 3124 3595 4205 4399 4558 4748 4762 4577 4543
0 0 0 0 0 0 0 0 0 0 0 0 0 0 0 0 0 0 0 2 7 0 0 0 0 0 131 130 332 572 895 1102 1239 1502 1602 1807 1579 1767 1900 1995 2044 2031 2027 2203 2087 2119 2160 2145 2161 1994 1783 1600 1785 2452 2976 3372 3870 4110 4349 4634 4547 4453 4396
Wind_Speed
nan nan nan nan nan nan nan nan nan nan nan nan nan nan nan nan nan nan nan nan nan nan nan nan nan nan nan nan nan nan 27 37 nan nan 30 20 15 15 15 17 16 16 14 13 14 16 17 16 14 13 12 13 14 15 12 9 7 6 3 2 1 1 3
nan nan nan nan nan nan nan nan nan nan nan nan nan nan nan nan nan nan nan nan nan nan nan nan nan nan nan nan nan nan nan nan nan 34 29 21 17 17 16 15 15 15 14 14 13 14 17 17 14 12 13 15 17 16 14 12 9 5 3 3 4 3 1
nan nan nan nan nan nan nan nan nan nan nan nan nan nan nan nan nan nan nan nan nan nan nan nan nan nan nan nan nan nan nan nan nan 33 29 24 19 19 18 14 12 13 13 13 12 12 15 15 13 13 14 17 18 16 15 12 8 5 2 4 5 6 4
nan nan nan nan nan nan nan nan nan nan nan nan nan nan nan nan nan nan nan nan nan nan nan nan nan nan nan nan nan nan nan nan nan 29 27 26 21 19 19 13 10 12 11 11 12 13 15 14 13 12 14 15 17 16 15 12 9 7 4 2 3 4 4
nan nan nan nan nan nan nan nan nan nan nan nan nan nan nan nan nan nan nan nan nan nan nan nan nan nan nan nan nan nan nan nan nan 28 30 27 21 20 18 12 9 12 10 8 10 12 11 11 12 13 14 15 17 17 15 14 11 8 4 3 3 5 3
nan nan nan nan nan nan nan nan nan nan nan nan nan nan nan nan nan nan nan nan nan nan nan nan nan nan nan nan nan nan nan nan 23 27 30 29 23 19 14 8 8 10 8 7 9 10 10 10 10 12 12 12 14 15 14 14 11 6 4 3 4 4 3
nan nan nan nan nan nan nan nan nan nan nan nan nan nan nan nan nan nan nan nan nan nan nan nan nan nan nan nan nan nan nan nan nan 27 29 29 27 21 12 9 10 10 10 8 9 11 11 10 8 8 8 10 12 12 14 14 11 5 3 3 4 2 3
nan nan nan nan nan nan nan nan nan nan nan nan nan nan nan nan nan nan nan nan nan nan nan nan nan nan nan nan nan nan nan nan nan 25 28 28 nan 22 16 11 10 11 11 9 8 9 8 6 5 5 5 8 10 11 12 14 11 6 2 2 3 3 3
nan nan nan nan nan nan nan nan nan nan nan nan nan nan nan nan nan nan nan nan nan nan nan nan nan nan nan nan nan nan nan nan 20 27 26 26 24 24 20 14 8 11 11 8 8 8 6 4 4 5 7 7 9 9 11 13 11 6 2 0 2 3 3
nan nan nan nan nan nan nan nan nan nan nan nan nan nan nan nan nan nan nan nan nan nan nan nan nan nan nan nan nan nan nan 18 22 20 26 23 22 23 21 11 5 8 9 8 9 8 6 5 5 7 10 10 10 9 8 11 12 8 3 1 2 3 4
nan nan 44 nan nan nan nan nan nan nan nan nan nan nan nan nan nan nan nan nan nan nan nan nan nan nan nan nan 33 27 24 26 23 20 18 20 21 nan 17 8 3 6 10 10 10 9 6 5 6 8 10 11 11 9 8 9 10 8 5 3 3 4 5
nan 48 nan nan nan nan nan nan nan nan nan nan nan nan nan nan nan nan nan 25 nan nan nan nan nan nan nan 36 37 28 25 26 23 20 18 17 21 21 15 9 5 3 8 11 11 9 8 7 6 7 7 10 11 9 8 7 7 7 6 5 5 5 5
nan nan nan nan nan nan nan nan nan nan nan nan nan nan nan nan nan nan nan 26 nan nan nan nan nan nan nan 38 37 30 26 30 30 22 23 23 25 20 16 13 8 3 9 10 10 11 10 8 5 5 7 8 8 8 8 7 5 6 8 8 10 10 8
nan nan nan nan nan nan nan nan nan nan nan nan nan nan nan nan nan nan 21 nan nan nan nan nan nan nan nan nan 35 29 29 34 32 30 28 29 28 23 17 13 9 7 7 7 8 11 12 9 4 3 7 9 9 9 8 9 10 9 10 11 12 12 11
nan nan nan nan nan nan nan nan nan nan nan nan nan nan nan nan nan nan 17 nan 17 nan nan nan nan nan nan nan nan 34 28 31 32 31 32 32 29 26 20 15 12 11 10 9 10 11 11 9 5 4 8 10 11 10 8 8 9 9 9 10 11 11 12
nan nan nan nan nan nan nan nan nan nan nan nan nan nan nan nan nan nan 21 22 nan nan nan nan nan nan nan nan nan nan 34 31 29 27 27 28 27 27 26 22 19 16 14 12 11 10 11 10 8 9 12 13 11 9 8 7 7 7 6 7 9 10 11
nan nan nan nan nan nan nan nan nan nan nan nan nan nan nan nan nan nan 23 nan nan nan nan nan nan nan nan nan nan nan nan nan 37 37 34 34 31 30 29 26 22 20 18 16 14 12 12 12 11 11 14 14 11 9 8 7 7 6 5 4 6 10 12
nan nan nan nan nan nan nan nan nan nan nan nan nan nan nan nan nan nan nan 26 28 nan nan nan nan nan nan nan nan nan nan nan nan 36 nan 36 36 33 28 23 20 19 19 18 17 16 17 16 16 17 17 15 13 11 10 9 7 6 6 5 7 10 13
nan nan nan nan nan nan nan nan nan nan nan nan nan nan nan nan nan nan nan nan 39 41 nan nan nan nan nan nan nan nan nan nan 38 34 30 nan 32 30 28 28 26 25 23 19 17 16 16 16 17 18 18 18 17 14 13 10 9 9 8 7 8 11 14
nan nan nan nan nan nan nan nan nan nan nan nan nan nan 58 60 58 43 nan nan nan nan nan nan nan nan nan 51 51 51 50 44 41 40 39 40 41 38 32 32 32 33 31 25 19 17 17 18 14 14 14 15 16 14 13 14 12 10 10 9 10 13 15
nan nan nan nan 57 nan nan nan nan nan nan nan nan 54 59 72 69 70 40 nan nan nan nan nan nan nan 53 54 51 52 49 45 44 45 43 40 38 38 36 35 32 30 29 24 20 19 20 19 18 16 15 14 14 15 14 12 14 13 11 10 11 13 16
nan nan nan nan nan nan nan nan nan nan nan nan nan 57 66 69 71 66 60 nan nan nan nan nan nan 52 56 52 47 47 47 45 46 47 43 39 37 37 34 30 30 27 24 22 22 22 21 21 20 21 22 19 16 15 14 14 15 14 13 11 13 16 16
nan nan nan nan nan nan nan nan nan nan nan nan nan 59 62 63 65 70 67 63 57 50 nan nan nan 53 52 49 47 46 46 44 44 45 42 40 38 35 33 30 28 25 21 18 20 22 24 25 23 23 22 21 20 17 16 15 16 14 13 15 18 18 18
nan nan nan nan nan nan nan nan nan nan nan nan nan 55 58 61 67 73 73 68 65 64 62 62 63 58 55 52 49 50 49 46 45 46 44 42 39 36 34 34 30 27 24 26 27 27 29 27 27 28 27 25 23 20 18 17 15 14 15 18 22 23 21
nan nan nan nan nan nan nan nan nan nan 74 nan 60 50 54 60 66 74 74 73 71 70 70 66 63 62 59 55 53 54 53 52 51 49 46 42 39 37 37 37 33 31 29 28 28 30 27 27 28 27 26 25 23 20 19 19 17 16 18 21 24 24 23
nan nan nan nan nan nan nan nan nan nan 74 71 61 52 51 63 72 73 77 78 76 75 76 71 68 65 62 59 57 58 56 53 50 48 45 43 41 39 38 40 37 33 31 30 32 31 28 29 27 25 25 24 22 22 20 21 19 19 18 19 20 23 22
nan nan nan nan nan nan nan nan nan nan 70 68 66 58 63 71 73 74 77 77 74 73 73 72 69 68 65 61 58 55 52 50 48 46 46 45 44 44 44 43 40 37 33 32 33 30 27 26 26 26 26 24 22 22 23 22 22 23 21 16 17 19 21
nan nan nan nan nan nan nan nan nan nan 65 64 69 69 65 68 74 75 74 75 73 71 68 68 67 67 64 62 57 50 46 46 47 47 48 49 49 48 47 44 41 37 35 31 31 29 28 29 28 26 24 24 23 24 25 22 24 24 25 20 18 18 19
nan nan nan nan nan nan nan nan nan nan 66 66 71 73 69 68 72 76 75 75 73 71 67 67 66 64 63 60 54 48 44 43 44 46 47 48 50 50 49 46 42 38 35 33 32 32 32 31 32 30 28 27 28 27 24 24 25 26 24 23 21 20 20
nan nan nan nan nan nan nan nan nan nan nan 75 71 72 73 72 71 72 75 74 73 71 70 69 66 61 56 54 50 47 45 45 43 44 46 48 48 48 47 46 43 40 38 36 35 35 35 33 32 30 29 29 29 27 26 28 27 26 27 26 26 24 24
nan nan nan nan nan nan nan nan nan nan nan nan 74 70 69 71 73 73 73 74 nan nan 74 73 67 62 58 53 50 46 45 45 44 44 45 45 45 45 46 44 43 42 40 39 38 37 36 33 33 32 30 30 29 28 30 29 30 30 29 29 28 27 27
nan nan nan nan nan nan nan nan nan nan nan nan nan nan 72 71 73 75 73 nan nan nan nan 77 73 69 64 59 55 50 48 47 45 45 44 44 44 43 42 43 43 42 42 41 40 38 36 35 35 34 33 33 32 32 30 30 32 32 32 31 29 29 29
nan nan nan nan nan nan nan nan nan nan nan nan nan nan 80 78 77 77 77 75 nan nan nan nan 76 73 68 63 58 54 49 46 45 45 44 43 42 41 42 43 42 44 43 43 42 40 38 37 37 36 34 34 35 35 34 32 31 33 32 31 31 31 31
nan nan nan nan nan nan nan nan nan nan nan nan nan nan nan nan 77 77 78 78 nan nan nan nan nan 72 67 63 60 55 50 47 45 44 45 45 43 42 43 43 43 44 44 44 43 41 39 39 39 38 37 38 38 36 34 34 34 33 34 35 33 33 32
nan nan nan nan nan nan nan nan nan nan nan nan nan nan nan nan nan nan nan nan nan nan nan nan nan 67 63 60 58 57 55 52 47 44 45 47 46 45 43 42 44 44 44 44 44 43 42 41 42 40 39 39 39 38 37 36 36 35 35 39 39 38 37
nan nan nan nan nan nan nan nan nan nan nan nan nan nan nan nan nan nan nan nan nan nan nan nan nan nan 60 58 59 59 58 54 50 48 47 45 45 45 46 45 44 44 44 47 47 45 44 44 43 42 41 41 41 41 39 38 38 39 38 40 41 40 40
nan nan nan nan nan nan nan nan nan nan nan nan nan nan nan nan nan nan nan nan nan nan nan nan nan nan 57 56 57 58 59 56 51 49 48 46 44 47 48 48 49 46 45 45 44 45 46 46 44 43 43 42 41 41 40 40 40 40 40 40 42 42 42
Wind_Direction
nan nan nan nan nan nan nan nan nan nan nan nan nan nan nan nan nan nan nan nan nan nan nan nan nan nan nan nan nan nan 273 301 nan nan 300 317 307 301 298 297 294 295 294 304 312 313 306 304 300 294 280 269 270 266 263 264 254 233 215 171 145 304 305
nan nan nan nan nan nan nan nan nan nan nan nan nan nan nan nan nan nan nan nan nan nan nan nan nan nan nan nan nan nan nan nan nan 291 296 305 302 299 301 300 292 290 291 301 307 310 311 310 315 309 283 260 254 258 266 267 260 251 195 161 145 145 4
nan nan nan nan nan nan nan nan nan nan nan nan nan nan nan nan nan nan nan nan nan nan nan nan nan nan nan nan nan nan nan nan nan 287 297 301 297 288 285 290 285 277 274 287 301 315 311 310 311 302 277 264 258 260 266 274 284 279 238 178 157 158 143
nan nan nan nan nan nan nan nan nan nan nan nan nan nan nan nan nan nan nan nan nan nan nan nan nan nan nan nan nan nan nan nan nan 284 295 291 286 285 290 297 287 275 279 298 315 317 311 308 305 301 296 279 282 276 275 277 279 269 250 177 149 125 111
nan nan nan nan nan nan nan nan nan nan nan nan nan nan nan nan nan nan nan nan nan nan nan nan nan nan nan nan nan nan nan nan nan 283 286 283 284 283 292 297 273 270 282 309 313 308 303 296 302 313 312 303 292 282 282 282 291 302 328 22 62 83 84
nan nan nan nan nan nan nan nan nan nan nan nan nan nan nan nan nan nan nan nan nan nan nan nan nan nan nan nan nan nan nan nan 280 277 283 282 286 292 301 290 270 279 284 296 300 292 280 287 309 332 326 304 297 295 284 283 288 297 343 27 64 73 87
nan nan nan nan nan nan nan nan nan nan nan nan nan nan nan nan nan nan nan nan nan nan nan nan nan nan nan nan nan nan nan nan nan 280 287 285 291 302 302 274 269 278 275 285 302 303 302 303 301 324 324 323 320 305 284 276 279 299 347 34 49 65 67
nan nan nan nan nan nan nan nan nan nan nan nan nan nan nan nan nan nan nan nan nan nan nan nan nan nan nan nan nan nan nan nan nan 287 288 290 nan 298 300 279 260 250 255 275 285 298 294 279 286 322 321 320 312 292 280 273 282 298 337 48 45 38 44
nan nan nan nan nan nan nan nan nan nan nan nan nan nan nan nan nan nan nan nan nan nan nan nan nan nan nan nan nan nan nan nan 262 287 287 289 285 291 302 295 264 232 247 281 293 299 293 276 295 312 314 313 306 283 261 269 273 280 289 43 40 29 19
nan nan nan nan nan nan nan nan nan nan nan nan nan nan nan nan nan nan nan nan nan nan nan nan nan nan nan nan nan nan nan 235 256 275 294 295 298 292 308 322 264 245 252 263 269 276 260 254 280 303 309 312 299 275 258 256 267 273 295 292 29 19 4
nan nan 188 nan nan nan nan nan nan nan nan nan nan nan nan nan nan nan nan nan nan nan nan nan nan nan nan nan 247 242 235 232 245 267 278 290 292 nan 311 334 227 230 228 252 269 274 265 255 258 282 300 312 308 283 258 256 260 273 289 318 355 4 357
nan 168 nan nan nan nan nan nan nan nan nan nan nan nan nan nan nan nan nan 229 nan nan nan nan nan nan nan 254 259 253 246 237 236 277 281 283 283 287 306 322 324 256 236 253 276 281 268 246 250 271 297 316 321 305 289 275 261 272 284 325 344 346 347
nan nan nan nan nan nan nan nan nan nan nan nan nan nan nan nan nan nan nan 238 nan nan nan nan nan nan nan 255 259 259 250 240 225 235 273 266 268 278 300 326 337 271 234 255 282 289 282 268 260 300 304 313 312 305 311 322 330 337 326 339 354 355 353
nan nan nan nan nan nan nan nan nan nan nan nan nan nan nan nan nan nan 228 nan nan nan nan nan nan nan nan nan 253 249 236 237 233 226 239 252 265 277 292 306 313 293 281 275 274 271 271 273 262 273 280 291 307 313 326 344 359 356 343 353 357 358 356
nan nan nan nan nan nan nan nan nan nan nan nan nan nan nan nan nan nan 232 nan 235 nan nan nan nan nan nan nan nan 246 241 233 231 228 231 239 251 268 279 285 288 285 281 273 268 271 274 283 287 250 258 269 283 298 308 335 349 348 344 346 350 352 350
nan nan nan nan nan nan nan nan nan nan nan nan nan nan nan nan nan nan 205 225 nan nan nan nan nan nan nan nan nan nan 224 224 224 233 236 237 245 252 265 272 269 270 271 270 276 277 275 275 272 248 243 254 268 290 298 314 322 328 338 335 338 339 337
nan nan nan nan nan nan nan nan nan nan nan nan nan nan nan nan nan nan 204 nan nan nan nan nan nan nan nan nan nan nan nan nan 232 223 220 222 227 240 245 250 258 259 260 252 251 253 255 259 262 259 249 250 261 274 283 284 283 314 338 309 311 327 329
nan nan nan nan nan nan nan nan nan nan nan nan nan nan nan nan nan nan nan 196 206 nan nan nan nan nan nan nan nan nan nan nan nan 229 nan 227 229 233 240 250 261 259 251 247 235 232 232 234 239 238 240 246 253 263 273 276 283 294 313 306 307 329 329
nan nan nan nan nan nan nan nan nan nan nan nan nan nan nan nan nan nan nan nan 211 212 nan nan nan nan nan nan nan nan nan nan 233 234 233 nan 244 246 250 244 238 244 249 248 240 230 229 231 231 234 236 241 245 254 263 274 283 277 287 309 301 314 326
nan nan nan nan nan nan nan nan nan nan nan nan nan nan 199 187 180 184 nan nan nan nan nan nan nan nan nan 233 227 226 226 227 236 240 239 238 238 237 236 238 238 244 242 242 242 237 229 228 230 242 247 249 254 256 259 265 266 281 279 291 298 302 319
nan nan nan nan 184 nan nan nan nan nan nan nan nan 209 195 187 186 188 196 nan nan nan nan nan nan nan 230 228 225 224 224 223 227 234 236 237 238 236 233 232 229 229 234 233 231 236 237 239 235 238 241 254 257 256 259 263 262 265 276 289 300 297 311
nan nan nan nan nan nan nan nan nan nan nan nan nan 209 198 187 182 186 189 nan nan nan nan nan nan 226 224 223 225 225 223 218 222 226 230 236 238 237 236 234 231 225 220 216 218 225 230 231 233 236 235 238 246 254 262 263 265 265 270 281 283 285 297
nan nan nan nan nan nan nan nan nan nan nan nan nan 206 198 183 179 187 196 200 200 215 nan nan nan 226 226 227 225 223 222 217 217 223 225 228 232 236 237 236 234 227 221 225 219 216 224 224 225 228 232 238 241 248 252 266 273 272 272 271 274 278 278
nan nan nan nan nan nan nan nan nan nan nan nan nan 197 190 179 179 190 197 202 202 209 218 226 225 227 230 227 224 222 224 222 218 219 220 223 224 226 232 233 229 224 226 228 218 218 218 218 217 221 223 226 231 238 243 252 264 276 276 268 265 265 266
nan nan nan nan nan nan nan nan nan nan 173 nan 193 193 183 175 185 192 197 203 204 207 211 214 222 222 226 224 221 222 224 225 221 218 218 220 221 223 228 229 224 221 221 221 220 222 219 218 218 218 220 221 219 225 229 237 242 242 248 258 263 263 262
nan nan nan nan nan nan nan nan nan nan 188 188 189 188 176 178 189 194 197 202 205 206 211 214 217 221 224 222 220 221 223 224 223 222 221 222 221 222 229 227 224 218 218 220 223 223 221 217 216 216 216 214 216 214 218 223 226 229 239 251 256 259 260
nan nan nan nan nan nan nan nan nan nan 193 189 185 183 185 187 191 195 197 200 205 207 211 215 216 218 221 223 224 225 223 220 220 222 222 223 223 223 226 224 220 218 218 222 225 224 219 221 216 215 212 212 210 211 219 214 211 217 223 241 255 260 258
nan nan nan nan nan nan nan nan nan nan 198 194 191 189 189 189 192 194 197 199 202 205 211 214 216 218 221 223 223 223 220 216 214 216 218 218 219 223 225 226 223 220 222 220 229 226 223 218 217 214 217 212 214 221 218 212 215 219 219 229 243 249 254
nan nan nan nan nan nan nan nan nan nan 203 205 200 194 192 190 192 193 197 199 200 202 208 214 217 220 222 226 224 222 216 215 214 215 216 217 217 221 224 224 223 223 223 226 228 226 226 224 223 218 216 221 220 218 213 219 221 221 220 225 242 243 244
nan nan nan nan nan nan nan nan nan nan nan 208 207 201 196 192 192 194 196 197 202 204 207 211 215 218 220 222 223 223 220 217 215 215 215 215 216 219 224 226 224 227 226 230 229 229 224 223 225 226 222 224 224 218 216 219 220 226 227 230 239 241 243
nan nan nan nan nan nan nan nan nan nan nan nan 209 208 202 197 195 197 198 199 nan nan 208 211 215 216 218 223 228 229 229 223 219 216 216 215 215 216 219 224 225 227 231 234 234 234 229 223 224 225 225 226 224 223 222 220 223 226 230 233 241 245 247
nan nan nan nan nan nan nan nan nan nan nan nan nan nan 210 207 201 201 202 nan nan nan nan 210 212 214 219 225 230 231 229 227 224 219 216 215 213 213 215 221 224 227 232 234 236 237 235 231 229 229 228 227 223 221 220 222 223 228 233 233 234 241 247
nan nan nan nan nan nan nan nan nan nan nan nan nan nan 209 212 210 207 207 209 nan nan nan nan 214 218 223 228 229 227 226 229 228 223 216 216 214 212 215 219 221 227 229 233 236 238 238 237 236 234 232 230 228 225 221 220 225 231 233 235 234 236 239
nan nan nan nan nan nan nan nan nan nan nan nan nan nan nan nan 210 209 209 211 nan nan nan nan nan 223 227 230 231 227 227 232 233 226 221 217 216 214 216 216 221 226 228 233 236 237 237 239 240 239 237 236 234 230 228 226 224 229 236 238 238 240 239
nan nan nan nan nan nan nan nan nan nan nan nan nan nan nan nan nan nan nan nan nan nan nan nan nan 226 228 228 228 228 228 228 228 230 226 222 219 217 217 219 221 224 227 230 235 237 238 240 241 240 240 240 238 235 232 229 228 229 236 244 243 242 241
nan nan nan nan nan nan nan nan nan nan nan nan nan nan nan nan nan nan nan nan nan nan nan nan nan nan 228 226 227 227 226 226 225 227 229 226 224 222 222 223 227 225 226 228 231 234 236 239 240 241 240 239 239 236 234 234 232 232 236 243 244 243 243
nan nan nan nan nan nan nan nan nan nan nan nan nan nan nan nan nan nan nan nan nan nan nan nan nan nan 225 224 226 226 225 223 224 228 228 227 227 229 228 227 227 228 228 228 229 232 236 238 239 240 240 239 239 237 236 235 235 235 236 240 243 243 244